Regional Weather Roundup
Issued by NWS

Home | Current Version | Previous Version | Graphics & Text | Print | Product List | Glossary On
Versions: 1 2 3 4 5 6 7 8 9 10 11 12 13 14 15 16 17 18 19 20 21 22 23 24 25 26 27 28 29 30 31 32 33 34 35 36 37 38 39 40 41 42 43 44 45 46 47 48 49 50
000
ASUS43 KFSD 051510
RWRSD

WEATHER ROUNDUP FOR SOUTH DAKOTA
NATIONAL WEATHER SERVICE SIOUX FALLS SD
1000 AM CDT TUE MAY 05 2015

NOTE: "FAIR" INDICATES FEW OR NO CLOUDS BELOW 12,000 FEET WITH NO
SIGNIFICANT WEATHER AND/OR OBSTRUCTIONS TO VISIBILITY.


SDZ001>005-009-010-012>017-051600-
NORTHWEST AND NORTH CENTRAL SOUTH DAKOTA

CITY           SKY/WX    TMP DP  RH WIND       PRES   REMARKS
BUFFALO          N/A     60  41  49 SE17G25   29.88F
FAITH            N/A     59  38  45 SE17      30.00F
MOBRIDGE       MOSUNNY   65  37  35 SE23G30   30.04F
$$

SDZ012>016-024>037-041>051-057-063-072>074-051600-
SOUTHWEST AND SOUTH CENTRAL SOUTH DAKOTA

CITY           SKY/WX    TMP DP  RH WIND       PRES   REMARKS
RAPID CTY ARPT SUNNY     56  41  57 SE13      29.98F
PIERRE         CLOUDY    59  40  49 SE17      30.04F
CUSTER         SUNNY     53  43  68 SE9       30.01F
ELLSWORTH AFB  SUNNY     57  42  57 SE16      29.97F
PHILIP         CLOUDY    56  43  61 E6        30.02F
PINE RIDGE     CLOUDY    53  46  77 SE7       30.01F
SPEARFISH      FAIR      63  45  51 NE8       29.95F
WINNER         CLOUDY    60  45  57 SE15      30.05F
$$

SDZ004>011-016>023-039-040-051600-
NORTHEAST SOUTH DAKOTA

CITY           SKY/WX    TMP DP  RH WIND       PRES   REMARKS
ABERDEEN       SUNNY     67  30  25 SE16      30.11F
WATERTOWN      SUNNY     64  28  25 E13G22    30.12F
BROOKINGS      MOSUNNY   64  30  27 E16       30.12S
SISSETON         N/A     62  30  29 S15       30.14F
$$

SDZ017-020-022-023-036>040-048>070-051600-
SOUTHEAST SOUTH DAKOTA

CITY           SKY/WX    TMP DP  RH WIND       PRES   REMARKS
SIOUX FALLS    PTSUNNY   62  37  39 E14       30.08F
HURON          SUNNY     66  32  28 E15G23    30.09F
CHAMBERLAIN    CLOUDY    59  36  43 SE13G18   30.06F
MITCHELL       MOSUNNY   65  35  33 SE13      30.08F
YANKTON        CLOUDY    61  43  51 E10G18    30.06F
$$

ABBREVIATIONS USED IN REMARKS
   TC - TEMPERATURE IN CELSIUS
  WCI - WIND CHILL INDEX
   HX - HEAT INDEX
  VSB - VISIBILITY




USA.gov is the U.S. government's official web portal to all federal, state and local government web resources and services.